World > North America > United States > Illinois > Westervelt

Hourly Westervelt, IL Regional Weather

Feedback E-mail the Weather

Quick WX

Westervelt, IL Weather Maps

°F °C°F °C
Westervelt Weather Map
UTC Time: 8/10/2022, 02:46
Your Time:

Westervelt, IL Regional Weather

Expires:202208100300;;765964
ASUS43 KLOT 100208
RWRIL 

ILLINOIS REGIONAL WEATHER ROUNDUP
NATIONAL WEATHER SERVICE CHICAGO/ROMEOVILLE IL
900 PM CDT TUE AUG 09 2022

NOTE: "FAIR" INDICATES FEW OR NO CLOUDS BELOW 12,000 FEET WITH NO
SIGNIFICANT WEATHER AND/OR OBSTRUCTIONS TO VISIBILITY.

* THESE STATIONS ARE NOT UNDER NWS QUALITY CONTROL. THEY ALSO MAY NOT
  REPORT WEATHER SUCH AS PRECIPITATION OR FOG.


ILZ028>032-037-038-041>044-048-051>054-059>061-100300-
CENTRAL ILLINOIS
  
CITY           SKY/WX    TMP DP  RH WIND       PRES   REMARKS
PONTIAC        CLEAR     64  64 100 E5        30.11R                  
BLOOMINGTON    CLEAR     66  63  90 E7        30.11R                  
DECATUR        CLEAR     68  67  96 NE6       30.09R                  
PEORIA         CLEAR     70  62  76 CALM      30.09R                  
LACON*         CLEAR     68  66  92 CALM      30.08S                  
LINCOLN*       MOCLDY    70  67  88 CALM      30.09R                  
SPRINGFIELD    CLEAR     68  64  87 N3        30.08R                  
TAYLORVILLE    PTCLDY    69  68  96 CALM      30.08S                  
$$


SKY/WX - Weather  TMP - Temperature  DP - Dew Point  RH - Humidity
WIND - Wind Direction/Speed PRES - Barometric Pressure VSB - Visibility
WCI - Wind Chill Index E13G22 Wind - East Wind 13 mph/Gusts of 22 mph

Trending Headlines

Westervelt Radar Loop



Westervelt Quick Facts


National Two Day Weather Forecast


E-mail the Westervelt Weather Forecast

Voice your opinion or tell us about page issues...